Regional Weather Roundup
Issued by NWS Spokane, WA

Home | Current Version | Previous Version | Text Only | Print | Product List | Glossary On
Versions: 1 2 3 4 5 6 7 8 9 10 11 12 13 14 15 16 17 18 19 20 21 22 23 24 25 26 27 28 29 30 31 32 33 34 35 36 37 38 39 40 41 42 43 44 45 46 47 48 49 50
000
NZUS01 KOTX 190105
RWROTX

Eastern Washington/Northern Idaho Roundup
National Weather Service, Spokane WA
500 PM PST SUN FEB 18 2018

Note: "fair" indicated few or no clouds below 12,000 feet with no
significant weather and/or obstructions to visibility.

...Northeast Washington and Northern Idaho Panhandle...

CITY           SKY/WX    TMP DP  RH WIND       PRES   REMARKS
Spokane Intl   MOCLDY    20  11  68 NE14      29.74R WCI   7
Spokane Downto CLOUDY    23  11  60 NE8       29.78R WCI  14
Coeur d Alene  CLOUDY    18  10  71 N23       29.76R WCI   0
Deer Park      CLOUDY    20   5  52 NE17G29   29.79R WCI   5
Sandpoint        N/A     18   5  57 N22G30    29.86R WCI   0
Bonners Ferry  FAIR      16   0  48 NE8       29.93R WCI   5

...Southeast Washington and southern Idaho Panhandle...

CITY           SKY/WX    TMP DP  RH WIND       PRES   REMARKS
Walla Walla    MOCLDY    35  29  78 N9        29.71R WCI  28
Pullman/Moscow MOCLDY    25  22  88 N9        29.66R WCI  15
Lewiston       MOCLDY    34  27  75 W7        29.69R WCI  28
Lowell           N/A     34  31  88 N8        29.67R WCI  27
Grangeville    FAIR      28  27  93 N8        29.59R WCI  20

...Columbia Basin...

CITY           SKY/WX    TMP DP  RH WIND       PRES   REMARKS
Ephrata        CLOUDY    27  15  61 N20G26    29.82R WCI  13
Moses Lake     CLOUDY    29  16  58 NE18      29.81R WCI  16
Pasco          CLOUDY    34  25  69 N18       29.79R WCI  23
Richland       FLURRIES  35  26  67 N20G26    29.81R WCI  24
Hermiston      CLOUDY    36  31  82 NE9       29.73R
Pendleton      CLOUDY    34  27  75 NE10      29.68R WCI  26

...East Slopes Cascades...

CITY           SKY/WX    TMP DP  RH WIND       PRES   REMARKS
The Dalles     LGT RAIN  37  33  85 NW10      29.73R
Yakima         CLOUDY    31  20  63 NE18G28   29.78R WCI  19
Ellensburg     CLOUDY    31  14  49 NE17      29.74R WCI  19
Wenatchee      CLOUDY    27  14  58 N21G33    29.83R WCI  13
Winthrop       MOCLDY    23   5  46 NW16G24   29.88R WCI   9
Omak           CLOUDY    24  14  65 N21G28    29.89R WCI   9
Sunnyside      CLOUDY    30  22  72 N21G28    29.75R WCI  17

...Southern British Columbia...

CITY           SKY/WX    TMP DP  RH WIND       PRES   REMARKS

...Western Montana...

CITY           SKY/WX    TMP DP  RH WIND       PRES   REMARKS
Kalispell      CLOUDY     9  -1  64 NE24      29.91R WCI -12
Missoula       CLOUDY    13   1  59 E16G25    29.82R WCI  -3

...Neighboring Cities...

CITY           SKY/WX    TMP DP  RH WIND       PRES   REMARKS
Seattle        PTCLDY    33  18  53 NW23G41   29.81R WCI  21
Portland       MOCLDY    39  35  86 SW5       29.74R
Boise          MOCLDY    34  21  59 N16       29.61R WCI  24
Great Falls    FLURRIES   1  -4  79 NE10      29.99S WCI -15



USA.gov is the U.S. government's official web portal to all federal, state and local government web resources and services.